Flag for U.S.A. Weather past 2 weeks in Thousand Oaks, California, U.S.A.

Now
77 °F

Sunny.


Feels Like: 79 °F
Forecast: 61 / 85 °F
Wind: 12 mph from Southwest

Location: Camarillo Airport

Current Time: Jul 28, 2015 at 2:56:14 PM

Latest Report: Jul 28, 2015 at 1:55 PM


Visibility: 10 mi

Pressure: 29.91 "Hg

Humidity: 58%

Dew point: 61 °F

Location of Thousand OaksLocation

Historic Weather in Thousand Oaks — Graph

°F

Thousand Oaks temperature yesterday

Maximum temperature yesterday: 78 °F (at 1:55 PM)
Minimum temperature yesterday: 63 °F (at 3:55 AM)
Average temperature yesterday: 69 °F

Past Weeks' High & Low Weather Summary

 TemperatureHumidityPressure
High85 °F (Jul 19, 1:55 PM)96% (Jul 21, 4:55 AM)30.09 "Hg (Jul 21, 4:55 AM)
Low58 °F (Jul 18, 3:55 AM)46% (Jul 25, 1:55 PM)29.82 "Hg (Jul 17, 5:55 PM)
Average71 °F74%29.95 "Hg
* Reported Jul 13 12:55 PM — Jul 28 12:55 PM, Thousand Oaks, Weather by CustomWeather, © 2015

Note: Actual official high and low records may vary slightly from our data, if they occured in-between our weather recording intervals... More about our weather records

Advertising

Thousand Oaks weather history for previous 24 hours

 ConditionsComfort  
Time TempWeatherWind HumidityBarometerVisibility
12:55 PM
Tue, Jul 28
77 °FSunny.12 mph60%29.91 "Hg9 mi
11:55 AM77 °FSunny.12 mph58%29.92 "Hg9 mi
10:55 AM77 °FSunny.5 mph58%29.92 "Hg9 mi
9:55 AM72 °FSunny.No wind68%29.93 "Hg8 mi
9:03 AM69 °FScattered clouds.No wind73%29.91 "Hg8 mi
8:55 AM69 °FPartly sunny.5 mph73%29.94 "Hg7 mi
7:55 AM66 °FPartly sunny.3 mph81%29.93 "Hg7 mi
6:55 AM65 °FPassing clouds.3 mph81%29.92 "Hg6 mi
5:55 AM65 °FLow clouds.No wind85%29.91 "Hg7 mi
4:55 AM63 °FLow clouds.No wind81%29.90 "Hg9 mi
3:55 AM61 °FClear.No wind83%29.90 "Hg9 mi
2:55 AM63 °FClear.No wind81%29.89 "Hg9 mi
1:55 AM63 °FClear.No wind81%29.90 "Hg9 mi
12:55 AM65 °FClear.No wind81%29.90 "Hg8 mi
11:55 PM
Mon, Jul 27
65 °FClear.No wind81%29.91 "Hg9 mi
10:55 PM65 °FClear.No wind81%29.92 "Hg9 mi
9:55 PM66 °FClear.3 mph78%29.92 "Hg9 mi
8:55 PM67 °FSunny.3 mph76%29.91 "Hg9 mi
7:55 PM68 °FSunny.5 mph73%29.90 "Hg8 mi
6:55 PM70 °FSunny.8 mph68%29.89 "Hg9 mi
5:55 PM72 °FPassing clouds.9 mph68%29.89 "Hg9 mi
4:55 PM73 °FScattered clouds.9 mph66%29.90 "Hg10 mi
3:55 PM76 °FPassing clouds.12 mph60%29.91 "Hg10 mi
2:55 PM77 °FSunny.13 mph56%29.91 "Hg10 mi
Weather by CustomWeather, © 2015

See weather overviewHow to use our weather pages